| time (UTC) | temp C | wind direction | speed KPH | gust KPH | rain 1hr cm | rain 24hr cm | rain mn cm | humidity % | barometer mb |
| 20260506144525 | 15 | 244 | 6.4 | 12.9 | 0.00 | 0.43 | 0.41 | 77 | 1009.9 |
| 20260506143024 | 15 | 315 | 0.0 | 11.3 | 0.00 | 0.43 | 0.41 | 79 | 1010.0 |
| 20260506141522 | 15 | 342 | 1.6 | 4.8 | 0.00 | 0.43 | 0.41 | 80 | 1010.3 |
| 20260506140028 | 15 | 282 | 1.6 | 6.4 | 0.03 | 0.43 | 0.41 | 79 | 1010.5 |
| 20260506134521 | 14 | 148 | 9.7 | 19.3 | 0.05 | 0.43 | 0.41 | 79 | 1010.9 |
| 20260506133027 | 13 | 131 | 11.3 | 24.1 | 0.13 | 0.43 | 0.41 | 80 | 1010.9 |
| 20260506131520 | 13 | 133 | 14.5 | 30.6 | 0.23 | 0.43 | 0.41 | 81 | 1010.8 |
| 20260506130019 | 13 | 139 | 14.5 | 24.1 | 0.28 | 0.41 | 0.38 | 80 | 1010.7 |
| 20260506124521 | 14 | 207 | 11.3 | 30.6 | 0.23 | 0.38 | 0.33 | 79 | 1010.9 |
| 20260506123015 | 14 | 116 | 9.7 | 14.5 | 0.18 | 0.33 | 0.28 | 82 | 1010.5 |
| 20260506121515 | 15 | 227 | 4.8 | 6.4 | 0.05 | 0.20 | 0.15 | 80 | 1010.4 |
| 20260506120012 | 15 | 317 | 3.2 | 6.4 | 0.03 | 0.15 | 0.10 | 79 | 1010.0 |
| 20260506114529 | 15 | 360 | 3.2 | 8.0 | 0.03 | 0.15 | 0.10 | 80 | 1010.0 |
| 20260506113011 | 15 | 334 | 4.8 | 8.0 | 0.03 | 0.15 | 0.10 | 81 | 1010.0 |
| 20260506111507 | 15 | 332 | 3.2 | 6.4 | 0.05 | 0.15 | 0.10 | 80 | 1010.4 |
| 20260506110004 | 15 | 283 | 3.2 | 6.4 | 0.05 | 0.13 | 0.08 | 78 | 1010.8 |
| 20260506104502 | 15 | 109 | 1.6 | 4.8 | 0.05 | 0.15 | 0.08 | 79 | 1010.9 |
| 20260506103002 | 15 | 150 | 3.2 | 4.8 | 0.05 | 0.15 | 0.08 | 78 | 1011.0 |
| 20260506101500 | 15 | 271 | 1.6 | 4.8 | 0.00 | 0.13 | 0.05 | 78 | 1011.1 |
| 20260506100114 | 15 | 271 | 1.6 | 4.8 | 0.00 | 0.13 | 0.05 | 79 | 1011.0 |
| 20260506094600 | 15 | 279 | 1.6 | 4.8 | 0.00 | 0.15 | 0.05 | 81 | 1010.8 |
| 20260506093059 | 14 | 286 | 3.2 | 6.4 | 0.00 | 0.15 | 0.05 | 80 | 1011.0 |
| 20260506091557 | 14 | 294 | 0.0 | 4.8 | 0.00 | 0.15 | 0.05 | 80 | 1011.1 |
| 20260506090055 | 14 | 290 | 0.0 | 4.8 | 0.00 | 0.15 | 0.05 | 81 | 1011.2 |
| 20260506084558 | 15 | 210 | 1.6 | 4.8 | 0.00 | 0.15 | 0.05 | 81 | 1011.2 |
| 20260506083052 | 14 | 246 | 0.0 | 3.2 | 0.00 | 0.15 | 0.05 | 81 | 1011.3 |
| 20260506081551 | 14 | 214 | 0.0 | 4.8 | 0.00 | 0.15 | 0.05 | 81 | 1011.3 |
| 20260506073046 | 13 | 175 | 1.6 | 4.8 | 0.03 | 0.15 | 0.05 | 82 | 1011.6 |
| 20260506071554 | 13 | 186 | 3.2 | 8.0 | 0.03 | 0.15 | 0.05 | 82 | 1011.6 |
| 20260506061543 | 13 | 163 | 3.2 | 6.4 | 0.00 | 0.13 | 0.03 | 81 | 1011.9 |
| 20260506044545 | 13 | 173 | 0.0 | 3.2 | 0.00 | 0.13 | 0.03 | 82 | 1011.6 |
| 20260506043038 | 12 | 173 | 1.6 | 4.8 | 0.00 | 0.13 | 0.03 | 82 | 1011.5 |
| 20260506041537 | 12 | 173 | 0.0 | 3.2 | 0.00 | 0.13 | 0.03 | 82 | 1011.7 |
| 20260506040036 | 12 | 165 | 0.0 | 3.2 | 0.00 | 0.13 | 0.03 | 82 | 1011.8 |
| 20260506034538 | 13 | 182 | 0.0 | 0.0 | 0.00 | 0.13 | 0.03 | 82 | 1011.8 |
| 20260506033036 | 13 | 182 | 0.0 | 0.0 | 0.00 | 0.13 | 0.03 | 82 | 1012.1 |
| 20260506031536 | 13 | 181 | 1.6 | 4.8 | 0.00 | 0.13 | 0.03 | 82 | 1012.2 |
| 20260506030054 | 13 | 146 | 1.6 | 4.8 | 0.00 | 0.13 | 0.03 | 82 | 1012.3 |
| 20260506024534 | 13 | 136 | 1.6 | 4.8 | 0.00 | 0.13 | 0.03 | 82 | 1012.3 |
| 20260506023032 | 13 | 147 | 3.2 | 4.8 | 0.00 | 0.13 | 0.03 | 82 | 1012.3 |
| 20260506021531 | 13 | 148 | 0.0 | 0.0 | 0.00 | 0.13 | 0.03 | 82 | 1012.2 |
| 20260506020028 | 13 | 148 | 0.0 | 0.0 | 0.03 | 0.13 | 0.03 | 82 | 1012.1 |
| 20260506014525 | 13 | 148 | 0.0 | 0.0 | 0.03 | 0.13 | 0.03 | 82 | 1012.4 |
| 20260506013024 | 13 | 148 | 0.0 | 3.2 | 0.03 | 0.13 | 0.03 | 82 | 1012.7 |
| 20260506011531 | 13 | 148 | 1.6 | 4.8 | 0.03 | 0.13 | 0.03 | 82 | 1012.7 |
| 20260506010022 | 13 | 147 | 0.0 | 0.0 | 0.00 | 0.10 | 0.00 | 82 | 1012.8 |
| 20260506004540 | 13 | 147 | 1.6 | 6.4 | 0.00 | 0.10 | 0.00 | 82 | 1012.8 |
| 20260506003026 | 13 | 165 | 0.0 | 0.0 | 0.00 | 0.10 | 0.00 | 82 | 1012.7 |
| 20260506001522 | 13 | 165 | 0.0 | 4.8 | 0.00 | 0.10 | 0.00 | 82 | 1012.8 |
| 20260506000022 | 13 | 207 | 0.0 | 3.2 | 0.00 | 0.10 | 0.00 | 82 | 1012.8 |
| 20260505234516 | 13 | 207 | 1.6 | 4.8 | 0.00 | 0.10 | 0.00 | 82 | 1013.1 |
| 20260505233015 | 13 | 207 | 3.2 | 6.4 | 0.00 | 0.10 | 0.00 | 81 | 1013.0 |
| 20260505231521 | 13 | 171 | 4.8 | 8.0 | 0.00 | 0.10 | 0.00 | 81 | 1013.1 |
| 20260505230014 | 13 | 142 | 3.2 | 9.7 | 0.00 | 0.10 | 0.00 | 81 | 1013.1 |
| 20260505224511 | 13 | 160 | 3.2 | 8.0 | 0.00 | 0.10 | 0.00 | 81 | 1013.3 |
| 20260505223010 | 13 | 166 | 4.8 | 11.3 | 0.00 | 0.10 | 0.00 | 81 | 1013.3 |
| 20260505221509 | 13 | 148 | 6.4 | 11.3 | 0.00 | 0.10 | 0.00 | 82 | 1013.4 |
| 20260505220008 | 13 | 134 | 3.2 | 8.0 | 0.00 | 0.10 | 0.00 | 81 | 1013.3 |
| 20260505214505 | 13 | 186 | 0.0 | 8.0 | 0.00 | 0.10 | 0.10 | 81 | 1013.4 |
| 20260505213007 | 13 | 155 | 0.0 | 0.0 | 0.00 | 0.10 | 0.10 | 81 | 1013.5 |
| 20260505211505 | 13 | 158 | 1.6 | 8.0 | 0.00 | 0.10 | 0.10 | 81 | 1013.6 |
| 20260505210004 | 13 | 165 | 4.8 | 9.7 | 0.00 | 0.10 | 0.10 | 81 | 1013.7 |
| 20260505204504 | 13 | 204 | 0.0 | 0.0 | 0.00 | 0.10 | 0.10 | 82 | 1013.5 |
| 20260505203016 | 13 | 204 | 0.0 | 1.6 | 0.00 | 0.10 | 0.10 | 82 | 1013.5 |
| 20260505201503 | 13 | 200 | 0.0 | 1.6 | 0.00 | 0.10 | 0.10 | 82 | 1013.6 |
| 20260505200003 | 13 | 203 | 0.0 | 4.8 | 0.03 | 0.10 | 0.10 | 82 | 1013.6 |
| 20260505194502 | 13 | 182 | 3.2 | 8.0 | 0.03 | 0.10 | 0.10 | 82 | 1013.4 |
| 20260505193130 | 14 | 195 | 3.2 | 14.5 | 0.03 | 0.10 | 0.10 | 81 | 1013.4 |
| 20260505191607 | 14 | 138 | 3.2 | 14.5 | 0.03 | 0.10 | 0.10 | 81 | 1013.3 |
| 20260505190100 | 14 | 150 | 4.8 | 16.1 | 0.00 | 0.08 | 0.08 | 81 | 1013.2 |
| 20260505184603 | 14 | 144 | 6.4 | 11.3 | 0.00 | 0.08 | 0.08 | 81 | 1013.1 |
| 20260505183059 | 14 | 150 | 6.4 | 11.3 | 0.00 | 0.08 | 0.08 | 81 | 1012.9 |
| 20260505181558 | 14 | 167 | 6.4 | 11.3 | 0.00 | 0.08 | 0.08 | 81 | 1012.8 |
| 20260505180058 | 14 | 159 | 3.2 | 11.3 | 0.00 | 0.08 | 0.08 | 80 | 1012.9 |
| 20260505174558 | 15 | 134 | 11.3 | 17.7 | 0.00 | 0.08 | 0.08 | 79 | 1012.8 |
| 20260505173059 | 15 | 135 | 8.0 | 20.9 | 0.00 | 0.08 | 0.08 | 78 | 1012.8 |
| 20260505171555 | 15 | 162 | 6.4 | 11.3 | 0.00 | 0.08 | 0.08 | 76 | 1012.8 |
| 20260505170054 | 15 | 188 | 0.0 | 8.0 | 0.00 | 0.08 | 0.08 | 76 | 1012.7 |
| 20260505164553 | 15 | 118 | 6.4 | 11.3 | 0.00 | 0.08 | 0.08 | 75 | 1012.7 |
| 20260505163054 | 15 | 200 | 1.6 | 6.4 | 0.00 | 0.08 | 0.08 | 77 | 1012.8 |
| 20260505161654 | 15 | 198 | 3.2 | 8.0 | 0.00 | 0.08 | 0.08 | 76 | 1012.8 |
| 20260505153101 | 15 | 157 | 4.8 | 12.9 | 0.00 | 0.08 | 0.08 | 76 | 1012.9 |
| 20260505151548 | 15 | 119 | 6.4 | 14.5 | 0.00 | 0.08 | 0.08 | 76 | 1013.0 |